| time (UTC) | temp F | wind direction | speed knots | gust knots | rain 1hr in | rain 24hr in | rain mn in | humidity % | barometer mb |
| 20260507225322 | 61 | 358 | 3.5 | 10.4 | 0.00 | 0.05 | 0.00 | 81 | 975.6 |
| 20260507224826 | 61 | 341 | 4.3 | 10.4 | 0.00 | 0.05 | 0.00 | 81 | 975.6 |
| 20260507224322 | 61 | 320 | 3.5 | 8.7 | 0.00 | 0.05 | 0.00 | 81 | 975.8 |
| 20260507223312 | 61 | 343 | 1.7 | 4.3 | 0.00 | 0.06 | 0.00 | 81 | 975.7 |
| 20260507222810 | 60 | 324 | 2.6 | 4.3 | 0.00 | 0.06 | 0.00 | 81 | 975.7 |
| 20260507221809 | 60 | 348 | 3.5 | 6.1 | 0.00 | 0.06 | 0.00 | 82 | 975.8 |
| 20260507220809 | 60 | 299 | 2.6 | 5.2 | 0.00 | 0.06 | 0.00 | 81 | 975.7 |
| 20260507220308 | 60 | 312 | 1.7 | 4.3 | 0.00 | 0.06 | 0.00 | 81 | 975.9 |
| 20260507215809 | 60 | 307 | 1.7 | 4.3 | 0.00 | 0.06 | 0.06 | 81 | 975.9 |
| 20260507215310 | 60 | 316 | 1.7 | 3.5 | 0.00 | 0.06 | 0.06 | 82 | 976.0 |
| 20260507214809 | 60 | 346 | 1.7 | 3.5 | 0.00 | 0.06 | 0.06 | 82 | 975.9 |
| 20260507214305 | 60 | 301 | 1.7 | 3.5 | 0.00 | 0.06 | 0.06 | 82 | 975.9 |
| 20260507213805 | 60 | 326 | 1.7 | 3.5 | 0.00 | 0.06 | 0.06 | 83 | 975.9 |
| 20260507213305 | 60 | 17 | 1.7 | 2.6 | 0.00 | 0.06 | 0.06 | 84 | 975.9 |
| 20260507212805 | 60 | 326 | 0.9 | 2.6 | 0.00 | 0.06 | 0.06 | 84 | 975.9 |
| 20260507212300 | 60 | 344 | 1.7 | 3.5 | 0.00 | 0.06 | 0.06 | 85 | 975.8 |
| 20260507211800 | 60 | 356 | 1.7 | 3.5 | 0.00 | 0.06 | 0.06 | 85 | 975.9 |
| 20260507211302 | 60 | 322 | 0.9 | 2.6 | 0.00 | 0.06 | 0.06 | 84 | 975.9 |
| 20260507210814 | 61 | 289 | 0.9 | 3.5 | 0.00 | 0.06 | 0.06 | 84 | 976.0 |
| 20260507210258 | 61 | 359 | 1.7 | 3.5 | 0.00 | 0.06 | 0.06 | 84 | 976.0 |
| 20260507205258 | 61 | 309 | 1.7 | 3.5 | 0.00 | 0.06 | 0.06 | 83 | 976.0 |
| 20260507204758 | 61 | 284 | 1.7 | 3.5 | 0.00 | 0.06 | 0.06 | 83 | 975.9 |
| 20260507204258 | 61 | 321 | 1.7 | 3.5 | 0.00 | 0.06 | 0.06 | 83 | 976.0 |
| 20260507203800 | 61 | 332 | 1.7 | 3.5 | 0.00 | 0.06 | 0.06 | 84 | 975.9 |
| 20260507203301 | 61 | 345 | 0.9 | 3.5 | 0.00 | 0.06 | 0.06 | 84 | 976.0 |
| 20260507202757 | 61 | 302 | 0.9 | 1.7 | 0.00 | 0.06 | 0.06 | 84 | 975.9 |
| 20260507202255 | 61 | 311 | 0.9 | 2.6 | 0.00 | 0.06 | 0.06 | 85 | 976.0 |
| 20260507201757 | 61 | 323 | 0.9 | 3.5 | 0.00 | 0.06 | 0.06 | 86 | 976.0 |
| 20260507201255 | 61 | 324 | 0.0 | 3.5 | 0.00 | 0.06 | 0.06 | 87 | 975.9 |
| 20260507200749 | 60 | 299 | 0.0 | 0.0 | 0.00 | 0.06 | 0.06 | 86 | 976.0 |
| 20260507200302 | 60 | 300 | 0.0 | 0.0 | 0.00 | 0.06 | 0.06 | 85 | 976.0 |
| 20260507195247 | 61 | 305 | 0.0 | 0.0 | 0.00 | 0.06 | 0.06 | 84 | 975.9 |
| 20260507194743 | 61 | 310 | 0.0 | 0.0 | 0.00 | 0.06 | 0.06 | 83 | 975.9 |
| 20260507194241 | 62 | 310 | 0.0 | 0.9 | 0.00 | 0.06 | 0.06 | 82 | 976.0 |
| 20260507193738 | 62 | 310 | 0.0 | 1.7 | 0.00 | 0.06 | 0.06 | 82 | 975.9 |
| 20260507193240 | 62 | 307 | 1.7 | 5.2 | 0.00 | 0.06 | 0.06 | 82 | 975.9 |
| 20260507192740 | 63 | 61 | 1.7 | 5.2 | 0.00 | 0.06 | 0.06 | 82 | 975.8 |
| 20260507191741 | 63 | 291 | 0.9 | 2.6 | 0.00 | 0.06 | 0.06 | 78 | 975.7 |
| 20260507190737 | 63 | 292 | 0.9 | 2.6 | 0.00 | 0.06 | 0.06 | 77 | 975.6 |
| 20260507190234 | 63 | 297 | 0.9 | 2.6 | 0.00 | 0.06 | 0.06 | 77 | 975.6 |
| 20260507185735 | 63 | 293 | 0.9 | 2.6 | 0.00 | 0.06 | 0.06 | 76 | 975.6 |
| 20260507185230 | 63 | 310 | 0.0 | 2.6 | 0.00 | 0.06 | 0.06 | 75 | 975.5 |
| 20260507184725 | 63 | 282 | 0.0 | 0.9 | 0.00 | 0.06 | 0.06 | 75 | 975.6 |
| 20260507184219 | 63 | 276 | 0.9 | 1.7 | 0.00 | 0.06 | 0.06 | 74 | 975.7 |
| 20260507183718 | 63 | 268 | 0.9 | 1.7 | 0.00 | 0.06 | 0.06 | 73 | 975.6 |
| 20260507183216 | 64 | 274 | 0.0 | 0.0 | 0.00 | 0.06 | 0.06 | 73 | 975.6 |
| 20260507182712 | 64 | 277 | 0.0 | 0.0 | 0.00 | 0.06 | 0.06 | 72 | 975.6 |
| 20260507182212 | 64 | 276 | 0.0 | 0.0 | 0.00 | 0.06 | 0.06 | 72 | 975.8 |
| 20260507181711 | 65 | 276 | 0.0 | 0.0 | 0.00 | 0.06 | 0.06 | 71 | 975.8 |
| 20260507181213 | 65 | 282 | 0.0 | 0.0 | 0.00 | 0.06 | 0.06 | 72 | 975.8 |
| 20260507180712 | 65 | 263 | 0.0 | 0.9 | 0.00 | 0.06 | 0.06 | 70 | 975.7 |
| 20260507180208 | 66 | 257 | 0.0 | 0.9 | 0.00 | 0.06 | 0.06 | 70 | 975.7 |
| 20260507175708 | 66 | 256 | 0.9 | 1.7 | 0.00 | 0.06 | 0.06 | 70 | 975.7 |
| 20260507175208 | 66 | 260 | 0.9 | 1.7 | 0.00 | 0.06 | 0.06 | 69 | 975.8 |
| 20260507174708 | 67 | 265 | 0.9 | 1.7 | 0.00 | 0.06 | 0.06 | 67 | 975.7 |
| 20260507174210 | 68 | 280 | 0.0 | 0.9 | 0.00 | 0.06 | 0.06 | 64 | 975.6 |
| 20260507173707 | 69 | 274 | 0.0 | 0.9 | 0.00 | 0.06 | 0.06 | 63 | 975.7 |
| 20260507173202 | 70 | 281 | 0.0 | 0.9 | 0.00 | 0.06 | 0.06 | 61 | 975.7 |
| 20260507172656 | 69 | 20 | 0.0 | 1.7 | 0.00 | 0.06 | 0.06 | 61 | 975.7 |
| 20260507172153 | 69 | 27 | 0.9 | 2.6 | 0.00 | 0.06 | 0.06 | 61 | 975.7 |
| 20260507171653 | 69 | 318 | 1.7 | 2.6 | 0.00 | 0.06 | 0.06 | 60 | 975.7 |
| 20260507171153 | 69 | 17 | 0.9 | 2.6 | 0.00 | 0.06 | 0.06 | 60 | 975.7 |
| 20260507170654 | 70 | 297 | 0.9 | 1.7 | 0.00 | 0.06 | 0.06 | 62 | 975.6 |
| 20260507170152 | 69 | 306 | 0.9 | 1.7 | 0.00 | 0.06 | 0.06 | 63 | 975.6 |
| 20260507165650 | 68 | 4 | 1.7 | 3.5 | 0.00 | 0.06 | 0.06 | 63 | 975.6 |
| 20260507165151 | 68 | 9 | 2.6 | 3.5 | 0.00 | 0.06 | 0.06 | 64 | 975.5 |
| 20260507164652 | 69 | 4 | 2.6 | 3.5 | 0.00 | 0.06 | 0.06 | 65 | 975.6 |
| 20260507163651 | 70 | 35 | 1.7 | 2.6 | 0.00 | 0.06 | 0.06 | 59 | 975.5 |
| 20260507163151 | 70 | 27 | 1.7 | 3.5 | 0.00 | 0.06 | 0.06 | 58 | 975.4 |
| 20260507162651 | 70 | 18 | 1.7 | 3.5 | 0.00 | 0.06 | 0.06 | 57 | 975.5 |
| 20260507161648 | 69 | 354 | 1.7 | 3.5 | 0.00 | 0.06 | 0.06 | 58 | 975.4 |
| 20260507161146 | 69 | 356 | 2.6 | 3.5 | 0.00 | 0.06 | 0.06 | 59 | 975.5 |
| 20260507155645 | 69 | 1 | 2.6 | 4.3 | 0.00 | 0.06 | 0.06 | 58 | 975.5 |
| 20260507155148 | 69 | 59 | 1.7 | 4.3 | 0.00 | 0.06 | 0.06 | 60 | 975.6 |
| 20260507154146 | 69 | 340 | 2.6 | 4.3 | 0.00 | 0.06 | 0.06 | 60 | 975.6 |
| 20260507153650 | 69 | 30 | 2.6 | 4.3 | 0.00 | 0.06 | 0.06 | 58 | 975.6 |
| 20260507153149 | 69 | 13 | 1.7 | 3.5 | 0.00 | 0.06 | 0.06 | 64 | 975.6 |
| 20260507152646 | 69 | 44 | 2.6 | 4.3 | 0.00 | 0.06 | 0.06 | 64 | 975.7 |
| 20260507152142 | 69 | 26 | 2.6 | 4.3 | 0.00 | 0.06 | 0.06 | 65 | 975.8 |
| 20260507151645 | 69 | 28 | 1.7 | 4.3 | 0.00 | 0.06 | 0.06 | 66 | 975.8 |
| 20260507151201 | 69 | 25 | 1.7 | 3.5 | 0.00 | 0.06 | 0.06 | 68 | 975.8 |
| 20260507150645 | 69 | 32 | 1.7 | 3.5 | 0.00 | 0.06 | 0.06 | 70 | 975.7 |
| 20260507150144 | 69 | 46 | 2.6 | 4.3 | 0.00 | 0.06 | 0.06 | 71 | 975.9 |
| 20260507145639 | 69 | 356 | 2.6 | 4.3 | 0.00 | 0.06 | 0.06 | 70 | 975.8 |
| 20260507145141 | 69 | 24 | 1.7 | 3.5 | 0.00 | 0.06 | 0.06 | 69 | 975.8 |
| 20260507144642 | 70 | 22 | 1.7 | 3.5 | 0.00 | 0.06 | 0.06 | 69 | 975.8 |
| 20260507144142 | 69 | 43 | 1.7 | 3.5 | 0.00 | 0.06 | 0.06 | 66 | 975.8 |
| 20260507143641 | 69 | 53 | 1.7 | 3.5 | 0.00 | 0.06 | 0.06 | 70 | 975.9 |
| 20260507142643 | 69 | 22 | 1.7 | 5.2 | 0.00 | 0.06 | 0.06 | 69 | 976.0 |
| 20260507142140 | 69 | 3 | 1.7 | 6.1 | 0.00 | 0.06 | 0.06 | 69 | 976.0 |
| 20260507141640 | 69 | 41 | 2.6 | 6.1 | 0.00 | 0.06 | 0.06 | 71 | 976.1 |
| 20260507141141 | 68 | 57 | 3.5 | 5.2 | 0.00 | 0.06 | 0.06 | 71 | 976.0 |
| 20260507140642 | 68 | 51 | 3.5 | 5.2 | 0.00 | 0.06 | 0.06 | 74 | 976.2 |
| 20260507140141 | 68 | 49 | 2.6 | 5.2 | 0.00 | 0.06 | 0.06 | 70 | 976.2 |
| 20260507135143 | 68 | 46 | 2.6 | 5.2 | 0.00 | 0.06 | 0.06 | 72 | 976.4 |
| 20260507134642 | 69 | 46 | 2.6 | 5.2 | 0.00 | 0.06 | 0.06 | 71 | 976.5 |
| 20260507134142 | 69 | 70 | 2.6 | 5.2 | 0.00 | 0.06 | 0.06 | 69 | 976.6 |
| 20260507133642 | 69 | 129 | 1.7 | 5.2 | 0.00 | 0.06 | 0.06 | 69 | 976.6 |
| 20260507132641 | 69 | 108 | 1.7 | 5.2 | 0.00 | 0.06 | 0.06 | 70 | 976.8 |
| 20260507132143 | 68 | 31 | 2.6 | 5.2 | 0.00 | 0.06 | 0.06 | 70 | 976.8 |
| 20260507131643 | 67 | 65 | 3.5 | 5.2 | 0.00 | 0.06 | 0.06 | 68 | 976.8 |
| 20260507131142 | 67 | 64 | 3.5 | 5.2 | 0.00 | 0.06 | 0.06 | 72 | 976.9 |
| 20260507130141 | 67 | 59 | 2.6 | 5.2 | 0.00 | 0.06 | 0.06 | 73 | 977.0 |
| 20260507125640 | 67 | 63 | 1.7 | 3.5 | 0.00 | 0.06 | 0.06 | 75 | 977.2 |
| 20260507124641 | 66 | 77 | 1.7 | 4.3 | 0.00 | 0.06 | 0.06 | 79 | 977.2 |
| 20260507124135 | 66 | 45 | 1.7 | 3.5 | 0.00 | 0.06 | 0.06 | 77 | 977.3 |
| 20260507123636 | 66 | 56 | 1.7 | 3.5 | 0.00 | 0.06 | 0.06 | 77 | 977.2 |
| 20260507123136 | 66 | 328 | 1.7 | 3.5 | 0.00 | 0.06 | 0.06 | 79 | 977.2 |
| 20260507122638 | 65 | 74 | 2.6 | 4.3 | 0.00 | 0.06 | 0.06 | 80 | 977.3 |
| 20260507122138 | 65 | 63 | 2.6 | 4.3 | 0.00 | 0.06 | 0.06 | 81 | 977.2 |
| 20260507121635 | 65 | 51 | 2.6 | 4.3 | 0.00 | 0.06 | 0.06 | 80 | 977.2 |
| 20260507121138 | 65 | 59 | 2.6 | 4.3 | 0.00 | 0.06 | 0.06 | 81 | 977.2 |
| 20260507115631 | 65 | 53 | 1.7 | 3.5 | 0.00 | 0.06 | 0.06 | 80 | 977.4 |
| 20260507115132 | 64 | 59 | 1.7 | 2.6 | 0.00 | 0.06 | 0.06 | 80 | 977.4 |
| 20260507114629 | 64 | 47 | 1.7 | 2.6 | 0.00 | 0.06 | 0.06 | 80 | 977.3 |
| 20260507113625 | 64 | 46 | 1.7 | 2.6 | 0.00 | 0.06 | 0.06 | 82 | 977.4 |
| 20260507113125 | 64 | 18 | 1.7 | 2.6 | 0.00 | 0.06 | 0.06 | 80 | 977.4 |
| 20260507112626 | 64 | 35 | 1.7 | 2.6 | 0.00 | 0.06 | 0.06 | 79 | 977.4 |
| 20260507112123 | 63 | 46 | 1.7 | 2.6 | 0.00 | 0.06 | 0.06 | 80 | 977.4 |
| 20260507111624 | 63 | 6 | 1.7 | 2.6 | 0.00 | 0.06 | 0.06 | 81 | 977.5 |
| 20260507111120 | 63 | 18 | 1.7 | 2.6 | 0.00 | 0.06 | 0.06 | 82 | 977.5 |
| 20260507110620 | 63 | 50 | 1.7 | 2.6 | 0.00 | 0.06 | 0.06 | 82 | 977.5 |
| 20260507105617 | 63 | 46 | 1.7 | 3.5 | 0.00 | 0.06 | 0.06 | 83 | 977.5 |
| 20260507105118 | 63 | 42 | 1.7 | 3.5 | 0.00 | 0.06 | 0.06 | 84 | 977.5 |
| 20260507104619 | 63 | 22 | 2.6 | 3.5 | 0.00 | 0.06 | 0.06 | 84 | 977.5 |
| 20260507104120 | 62 | 354 | 2.6 | 3.5 | 0.00 | 0.06 | 0.06 | 83 | 977.5 |
| 20260507103618 | 63 | 354 | 2.6 | 4.3 | 0.00 | 0.06 | 0.06 | 84 | 977.5 |
| 20260507103116 | 63 | 29 | 2.6 | 4.3 | 0.00 | 0.06 | 0.06 | 85 | 977.5 |
| 20260507102617 | 63 | 15 | 2.6 | 4.3 | 0.00 | 0.06 | 0.06 | 86 | 977.6 |
| 20260507102117 | 62 | 8 | 2.6 | 4.3 | 0.00 | 0.06 | 0.06 | 85 | 977.6 |
| 20260507101615 | 62 | 24 | 2.6 | 3.5 | 0.00 | 0.06 | 0.06 | 86 | 977.7 |
| 20260507100615 | 62 | 43 | 1.7 | 3.5 | 0.00 | 0.06 | 0.06 | 86 | 977.6 |
| 20260507095613 | 62 | 34 | 2.6 | 3.5 | 0.00 | 0.06 | 0.06 | 85 | 977.6 |
| 20260507095113 | 62 | 34 | 2.6 | 4.3 | 0.00 | 0.06 | 0.06 | 85 | 977.6 |
| 20260507094607 | 62 | 13 | 2.6 | 4.3 | 0.00 | 0.06 | 0.06 | 86 | 977.8 |
| 20260507093602 | 62 | 335 | 1.7 | 2.6 | 0.00 | 0.06 | 0.06 | 84 | 977.6 |
| 20260507093100 | 62 | 83 | 0.9 | 2.6 | 0.00 | 0.06 | 0.06 | 84 | 977.7 |
| 20260507092600 | 62 | 55 | 0.9 | 2.6 | 0.00 | 0.06 | 0.06 | 85 | 977.7 |
| 20260507092100 | 62 | 72 | 0.9 | 2.6 | 0.00 | 0.06 | 0.06 | 86 | 977.7 |
| 20260507091604 | 61 | 36 | 0.9 | 2.6 | 0.00 | 0.06 | 0.06 | 87 | 977.7 |
| 20260507091059 | 61 | 24 | 1.7 | 3.5 | 0.00 | 0.06 | 0.06 | 88 | 977.7 |
| 20260507090558 | 61 | 359 | 0.9 | 3.5 | 0.00 | 0.06 | 0.06 | 87 | 977.8 |
| 20260507090109 | 61 | 52 | 0.0 | 1.7 | 0.00 | 0.06 | 0.06 | 88 | 977.9 |
| 20260507085558 | 61 | 41 | 0.9 | 1.7 | 0.00 | 0.06 | 0.06 | 88 | 977.8 |
| 20260507084053 | 60 | 53 | 1.7 | 3.5 | 0.00 | 0.06 | 0.06 | 89 | 977.8 |
| 20260507083549 | 60 | 58 | 1.7 | 4.3 | 0.00 | 0.06 | 0.06 | 89 | 977.7 |
| 20260507083043 | 60 | 11 | 1.7 | 4.3 | 0.00 | 0.06 | 0.06 | 90 | 977.7 |
| 20260507082545 | 60 | 90 | 1.7 | 3.5 | 0.00 | 0.06 | 0.06 | 91 | 977.8 |
| 20260507082047 | 60 | 65 | 1.7 | 3.5 | 0.00 | 0.06 | 0.06 | 90 | 977.8 |
| 20260507081546 | 60 | 57 | 1.7 | 3.5 | 0.00 | 0.06 | 0.06 | 91 | 977.8 |
| 20260507081047 | 59 | 77 | 2.6 | 4.3 | 0.00 | 0.06 | 0.06 | 91 | 977.8 |
| 20260507080545 | 59 | 39 | 1.7 | 4.3 | 0.00 | 0.06 | 0.06 | 91 | 977.7 |
| 20260507080058 | 59 | 52 | 1.7 | 3.5 | 0.00 | 0.06 | 0.06 | 91 | 977.7 |
| 20260507075541 | 59 | 74 | 1.7 | 3.5 | 0.00 | 0.06 | 0.06 | 91 | 977.7 |
| 20260507075045 | 60 | 48 | 1.7 | 4.3 | 0.00 | 0.06 | 0.06 | 92 | 977.8 |
| 20260507074543 | 60 | 12 | 2.6 | 4.3 | 0.00 | 0.06 | 0.06 | 91 | 977.8 |
| 20260507074045 | 60 | 44 | 1.7 | 5.2 | 0.00 | 0.06 | 0.06 | 92 | 977.8 |
| 20260507073542 | 60 | 60 | 1.7 | 5.2 | 0.00 | 0.06 | 0.06 | 93 | 977.8 |
| 20260507073044 | 60 | 133 | 0.9 | 4.3 | 0.00 | 0.06 | 0.06 | 94 | 977.7 |
| 20260507072541 | 60 | 136 | 0.9 | 3.5 | 0.00 | 0.06 | 0.06 | 95 | 977.8 |
| 20260507072042 | 60 | 61 | 1.7 | 3.5 | 0.00 | 0.06 | 0.06 | 95 | 977.7 |
| 20260507070538 | 59 | 138 | 1.7 | 4.3 | 0.00 | 0.06 | 0.06 | 96 | 977.7 |
| 20260507070038 | 59 | 209 | 1.7 | 3.5 | 0.00 | 0.06 | 0.06 | 96 | 977.7 |
| 20260507065538 | 58 | 207 | 0.9 | 3.5 | 0.00 | 0.06 | 0.06 | 97 | 977.7 |
| 20260507064537 | 57 | 146 | 1.7 | 3.5 | 0.00 | 0.06 | 0.06 | 97 | 977.5 |
| 20260507064049 | 57 | 79 | 1.7 | 3.5 | 0.00 | 0.06 | 0.06 | 97 | 977.5 |
| 20260507063037 | 57 | 102 | 1.7 | 3.5 | 0.00 | 0.06 | 0.06 | 97 | 977.5 |
| 20260507062536 | 57 | 152 | 0.9 | 2.6 | 0.00 | 0.06 | 0.06 | 97 | 977.5 |
| 20260507062036 | 56 | 103 | 0.9 | 2.6 | 0.00 | 0.06 | 0.06 | 97 | 977.5 |
| 20260507061531 | 56 | 108 | 0.9 | 1.7 | 0.00 | 0.06 | 0.06 | 97 | 977.5 |
| 20260507061026 | 56 | 116 | 0.9 | 0.9 | 0.00 | 0.06 | 0.06 | 97 | 977.5 |
| 20260507060519 | 56 | 126 | 0.9 | 1.7 | 0.00 | 0.06 | 0.06 | 97 | 977.5 |
| 20260507060019 | 56 | 76 | 0.9 | 1.7 | 0.00 | 0.06 | 0.06 | 97 | 977.5 |
| 20260507055518 | 56 | 108 | 0.0 | 1.7 | 0.00 | 0.06 | 0.06 | 97 | 977.6 |
| 20260507055016 | 56 | 114 | 0.0 | 1.7 | 0.00 | 0.06 | 0.06 | 97 | 977.5 |
| 20260507054515 | 56 | 165 | 0.0 | 0.0 | 0.00 | 0.06 | 0.06 | 97 | 977.5 |
| 20260507054015 | 56 | 165 | 0.0 | 1.7 | 0.00 | 0.06 | 0.06 | 97 | 977.4 |
| 20260507053516 | 56 | 164 | 0.9 | 1.7 | 0.00 | 0.06 | 0.06 | 97 | 977.4 |
| 20260507053013 | 56 | 148 | 0.9 | 2.6 | 0.00 | 0.06 | 0.06 | 97 | 977.3 |
| 20260507052519 | 56 | 155 | 0.9 | 2.6 | 0.00 | 0.06 | 0.06 | 97 | 977.2 |
| 20260507052012 | 56 | 198 | 0.0 | 2.6 | 0.00 | 0.06 | 0.06 | 97 | 977.2 |
| 20260507051511 | 55 | 210 | 0.9 | 1.7 | 0.00 | 0.06 | 0.06 | 97 | 977.1 |
| 20260507051013 | 55 | 151 | 0.9 | 1.7 | 0.00 | 0.06 | 0.06 | 97 | 977.1 |
| 20260507050512 | 55 | 243 | 0.0 | 1.7 | 0.00 | 0.06 | 0.06 | 97 | 977.1 |
| 20260507050013 | 55 | 237 | 0.0 | 1.7 | 0.00 | 0.06 | 0.06 | 97 | 977.1 |
| 20260507045509 | 55 | 231 | 0.9 | 3.5 | 0.00 | 0.06 | 0.06 | 97 | 977.0 |
| 20260507045009 | 55 | 243 | 0.9 | 3.5 | 0.00 | 0.06 | 0.06 | 97 | 977.1 |
| 20260507044011 | 54 | 229 | 1.7 | 4.3 | 0.00 | 0.07 | 0.06 | 97 | 976.8 |
| 20260507043509 | 54 | 202 | 2.6 | 5.2 | 0.00 | 0.08 | 0.06 | 97 | 976.8 |
| 20260507043011 | 54 | 233 | 2.6 | 5.2 | 0.00 | 0.08 | 0.06 | 97 | 976.7 |
| 20260507042509 | 54 | 246 | 2.6 | 4.3 | 0.00 | 0.09 | 0.06 | 97 | 976.7 |
| 20260507041507 | 54 | 220 | 2.6 | 6.1 | 0.00 | 0.09 | 0.06 | 97 | 976.5 |
| 20260507041006 | 54 | 148 | 2.6 | 6.1 | 0.00 | 0.09 | 0.06 | 97 | 976.6 |
| 20260507040008 | 54 | 218 | 2.6 | 6.1 | 0.00 | 0.10 | 0.06 | 97 | 976.5 |
| 20260507035505 | 54 | 222 | 1.7 | 5.2 | 0.00 | 0.10 | 0.06 | 97 | 976.6 |
| 20260507035007 | 54 | 239 | 1.7 | 4.3 | 0.00 | 0.10 | 0.06 | 97 | 976.5 |
| 20260507034504 | 54 | 227 | 1.7 | 4.3 | 0.00 | 0.10 | 0.06 | 97 | 976.4 |
| 20260507033958 | 54 | 200 | 2.6 | 5.2 | 0.00 | 0.10 | 0.06 | 97 | 976.5 |
| 20260507033451 | 54 | 188 | 2.6 | 6.1 | 0.00 | 0.10 | 0.06 | 97 | 976.6 |
| 20260507031453 | 54 | 243 | 2.6 | 5.2 | 0.00 | 0.11 | 0.06 | 97 | 976.4 |
| 20260507030951 | 54 | 211 | 1.7 | 4.3 | 0.00 | 0.12 | 0.06 | 97 | 976.5 |
| 20260507030504 | 54 | 229 | 2.6 | 5.2 | 0.00 | 0.12 | 0.06 | 97 | 976.5 |
| 20260507025954 | 55 | 229 | 3.5 | 7.0 | 0.00 | 0.12 | 0.06 | 97 | 976.5 |
| 20260507025452 | 55 | 212 | 3.5 | 7.0 | 0.00 | 0.12 | 0.06 | 97 | 976.6 |
| 20260507024953 | 55 | 231 | 3.5 | 6.1 | 0.00 | 0.12 | 0.06 | 97 | 976.5 |
| 20260507024454 | 55 | 188 | 2.6 | 6.1 | 0.00 | 0.12 | 0.06 | 97 | 976.5 |
| 20260507023955 | 55 | 182 | 3.5 | 7.0 | 0.00 | 0.12 | 0.06 | 97 | 976.4 |
| 20260507023507 | 55 | 219 | 4.3 | 8.7 | 0.00 | 0.12 | 0.06 | 97 | 976.6 |
| 20260507022446 | 56 | 153 | 4.3 | 7.8 | 0.00 | 0.12 | 0.06 | 97 | 976.6 |
| 20260507021944 | 56 | 218 | 4.3 | 7.8 | 0.00 | 0.12 | 0.06 | 97 | 976.6 |
| 20260507021444 | 56 | 171 | 3.5 | 7.0 | 0.00 | 0.12 | 0.06 | 97 | 976.6 |
| 20260507020956 | 56 | 216 | 3.5 | 6.1 | 0.00 | 0.12 | 0.06 | 97 | 976.6 |
| 20260507020444 | 56 | 211 | 4.3 | 7.8 | 0.00 | 0.12 | 0.06 | 97 | 976.6 |
| 20260507015943 | 56 | 214 | 4.3 | 7.8 | 0.00 | 0.12 | 0.06 | 97 | 976.6 |
| 20260507015446 | 56 | 169 | 4.3 | 7.8 | 0.00 | 0.12 | 0.06 | 97 | 976.7 |
| 20260507014445 | 56 | 199 | 3.5 | 7.0 | 0.01 | 0.12 | 0.06 | 97 | 976.6 |
| 20260507013943 | 56 | 191 | 3.5 | 7.0 | 0.01 | 0.12 | 0.06 | 97 | 976.5 |
| 20260507013443 | 56 | 221 | 3.5 | 7.8 | 0.01 | 0.12 | 0.06 | 97 | 976.7 |
| 20260507012944 | 56 | 232 | 4.3 | 7.8 | 0.01 | 0.12 | 0.06 | 96 | 976.7 |
| 20260507012443 | 56 | 207 | 3.5 | 7.8 | 0.01 | 0.12 | 0.06 | 96 | 976.7 |
| 20260507011946 | 56 | 211 | 3.5 | 7.0 | 0.01 | 0.12 | 0.06 | 96 | 976.7 |
| 20260507011443 | 56 | 228 | 3.5 | 7.0 | 0.01 | 0.13 | 0.06 | 96 | 976.7 |
| 20260507010937 | 56 | 250 | 2.6 | 5.2 | 0.02 | 0.13 | 0.06 | 96 | 976.7 |
| 20260507010431 | 56 | 211 | 2.6 | 7.0 | 0.02 | 0.13 | 0.06 | 96 | 976.7 |
| 20260507005928 | 56 | 256 | 2.6 | 7.0 | 0.03 | 0.13 | 0.06 | 96 | 976.8 |
| 20260507005427 | 56 | 293 | 1.7 | 4.3 | 0.03 | 0.12 | 0.06 | 96 | 976.8 |
| 20260507004928 | 56 | 227 | 2.6 | 5.2 | 0.04 | 0.12 | 0.05 | 96 | 976.7 |
| 20260507004430 | 56 | 221 | 2.6 | 6.1 | 0.04 | 0.12 | 0.05 | 96 | 976.6 |
| 20260507003929 | 56 | 206 | 3.5 | 7.0 | 0.04 | 0.12 | 0.05 | 96 | 976.6 |
| 20260507003431 | 57 | 202 | 3.5 | 7.0 | 0.04 | 0.12 | 0.05 | 96 | 976.6 |
| 20260507002929 | 57 | 200 | 3.5 | 7.0 | 0.04 | 0.12 | 0.05 | 96 | 976.5 |
| 20260507001952 | 57 | 218 | 2.6 | 6.1 | 0.04 | 0.12 | 0.05 | 95 | 976.4 |
| 20260507000927 | 58 | 227 | 1.7 | 4.3 | 0.03 | 0.11 | 0.04 | 95 | 976.3 |
| 20260507000431 | 58 | 217 | 2.6 | 7.0 | 0.02 | 0.10 | 0.03 | 95 | 976.3 |
| 20260506235927 | 58 | 181 | 1.7 | 7.0 | 0.02 | 0.09 | 0.02 | 95 | 976.4 |
| 20260506235425 | 58 | 141 | 1.7 | 4.3 | 0.01 | 0.09 | 0.02 | 95 | 976.6 |
| 20260506234413 | 58 | 186 | 3.5 | 7.0 | 0.00 | 0.08 | 0.01 | 95 | 976.7 |
| 20260506233911 | 58 | 208 | 2.6 | 7.0 | 0.00 | 0.08 | 0.01 | 95 | 976.7 |
| 20260506233409 | 58 | 206 | 2.6 | 7.0 | 0.00 | 0.08 | 0.01 | 95 | 976.7 |
| 20260506232908 | 58 | 208 | 2.6 | 6.1 | 0.01 | 0.08 | 0.01 | 95 | 976.7 |
| 20260506232407 | 58 | 247 | 2.6 | 6.1 | 0.01 | 0.08 | 0.01 | 95 | 976.6 |
| 20260506231419 | 58 | 207 | 2.6 | 5.2 | 0.01 | 0.08 | 0.01 | 95 | 976.5 |
| 20260506230908 | 58 | 248 | 2.6 | 6.1 | 0.01 | 0.08 | 0.01 | 95 | 976.6 |